Vorticity
7 6 7 8 8 6 4 5 6 7 4 3 6 6 3 3 12 11 26 34 34 28
8 12 5 7 7 5 6 6 6 4 5 5 5 2 1 14 21 34 30 31 27 28
6 7 11 8 6 6 6 5 5 7 4 4 3 2 14 24 33 34 33 30 39 22
10 11 10 6 6 4 5 7 4 4 4 3 1 15 26 43 38 33 31 14 8 9
12 9 7 6 2 6 5 4 6 7 3 2 19 30 39 38 29 15 6 4 5 7
11 8 4 2 7 2 3 8 8 1 4 18 36 38 36 28 18 11 6 4 4 2
8 5 4 7 3 3 10 7 -2 5 17 38 33 34 27 19 14 4 7 6 0 3
6 7 5 3 7 9 4 -0 6 17 36 31 31 29 20 18 9 10 10 5 4 2
6 3 5 9 8 5 -1 7 18 38 29 29 30 20 18 11 5 10 11 9 6 6
3 3 6 9 6 0 8 21 34 26 28 31 20 16 12 10 7 12 7 7 7 17
4 5 12 3 0 8 26 30 22 26 28 23 16 13 7 9 9 7 6 7 13 8
-0 15 1 1 6 26 27 20 24 26 25 16 14 14 12 10 10 10 9 11 11 11
18 -1 1 6 25 24 19 20 28 24 18 13 12 17 12 10 9 8 10 12 9 14
2 2 7 26 21 20 17 29 24 19 16 15 17 11 9 11 9 10 11 10 14 14
Height
5719 5712 5705 5697 5689 5682 5673 5665 5656 5646 5636 5626 5613 5600 5586 5571 5554 5539 5523 5510 5499 5489
5708 5699 5691 5684 5677 5668 5660 5651 5641 5630 5618 5605 5591 5577 5561 5545 5528 5513 5500 5490 5481 5474
5694 5687 5679 5672 5664 5655 5645 5635 5624 5612 5598 5584 5569 5554 5538 5521 5506 5493 5483 5475 5468 5462
5683 5676 5668 5659 5650 5640 5629 5618 5606 5593 5580 5565 5548 5532 5516 5499 5486 5477 5470 5465 5459 5453
5671 5662 5654 5645 5634 5623 5611 5599 5587 5574 5560 5545 5526 5509 5494 5481 5472 5466 5462 5456 5451 5445
5657 5648 5640 5630 5619 5607 5596 5583 5569 5554 5538 5520 5504 5488 5477 5469 5462 5458 5453 5447 5442 5436
5644 5635 5626 5615 5604 5592 5580 5566 5551 5531 5514 5497 5483 5472 5464 5458 5453 5448 5443 5438 5432 5426
5630 5621 5610 5599 5588 5576 5561 5546 5529 5511 5492 5479 5468 5459 5453 5448 5444 5440 5434 5429 5422 5416
5616 5606 5595 5584 5570 5556 5541 5525 5508 5492 5477 5465 5456 5450 5445 5440 5436 5430 5425 5420 5414 5407
5603 5592 5579 5565 5552 5538 5522 5504 5488 5475 5464 5454 5447 5441 5436 5431 5426 5421 5416 5411 5404 5397
5588 5576 5562 5549 5535 5519 5502 5487 5474 5462 5452 5444 5439 5433 5429 5424 5418 5413 5407 5401 5395 5387
5571 5559 5547 5533 5517 5500 5486 5474 5463 5452 5444 5437 5432 5426 5421 5416 5411 5406 5399 5393 5386 5379
5556 5544 5531 5516 5500 5485 5473 5462 5452 5443 5436 5429 5424 5418 5414 5409 5404 5398 5392 5385 5377 5370
5541 5528 5514 5498 5484 5472 5461 5450 5441 5434 5428 5422 5417 5411 5407 5401 5396 5390 5384 5378 5370 5363